Darstellungsparameter: Aktuell verwendete Einstellungen:
Skalierung der Graphiken ... ?
xyx+y,   Skalierungsfaktor:      Skalierung: Modus: x, Faktor: 1
Darstellungszeitraum ... ?
Vom - - bis: - -   Zeitraum: 22.04.2021 - 23.04.2021
Min/Max/Avg-Anzeige ... ?
Zeige MMA aktuell
Zeige MMA Monat
Zeige MMA alles
Zeige --A aktuell
Zeige --A Monat
Zeige --A alles
Keine MMA-Anzeige
MMA:
Average (ber die Originaldaten)
MMA-Basis: 22.04.2021 - 23.04.2021
Quicknavigation für Darstellung... ?
Tage:      1T, 2T, 3T, 5T -1T -2T -3T -5T +1T +2T +3T +5T
Wochen: 1W, 2W, 3W -1W -2W -3W +1W +2W +3W
Monate: 1M, 3M, 6M -1M -3M -6M +1M +3M +6M
Jahre:    1J, 3J, 5J, 10J -1J -3J -5J -10J +1J +3J +5J +10J
Nutze für die Darstellung ... ?
Originaldaten oder Mittelwerte auf ...
Stundenbasis Tagesbasis Wochenbasis
Monatsbasis Jahresbasis      Datenbasis: Original-Daten
Darstellen als:
Statistik (Auto) Statistik J:M      Darstellung:

Der gewünschte Datumsbereich war nicht gültig/verfügbar und wurde korrigiert....
Das angegebene Enddatum (31.12.2029 23:59:59) liegt in der Zukunft.
Das angegebene Startdatum (03.12.2029 00:00:00) liegt in der Zukunft.


Zur Graphik,    zurück zur Übersicht aller Sensoren.
 
Tabellarische Datenbersicht: ?
 
Sensor: Nr:Datum:Temp:Feuchte:
Aussen-T/F 1 22-04-2021 02:04:18 7.3 C 36 %
2 22-04-2021 02:14:18 7.1 C 37 %
3 22-04-2021 02:24:18 7.5 C 36 %
4 22-04-2021 02:34:18 7.4 C 35 %
5 22-04-2021 02:44:18 7.1 C 35 %
6 22-04-2021 02:54:17 6.9 C 35 %
7 22-04-2021 03:04:17 6.5 C 35 %
8 22-04-2021 03:14:17 6.5 C 35 %
9 22-04-2021 03:24:17 6.3 C 35 %
10 22-04-2021 03:34:17 6 C 35 %
11 22-04-2021 03:44:17 5.6 C 35 %
12 22-04-2021 03:54:17 5.3 C 36 %
13 22-04-2021 04:04:17 5.4 C 36 %
14 22-04-2021 04:14:17 4 C 37 %
15 22-04-2021 04:24:17 4.8 C 36 %
16 22-04-2021 04:34:17 4.6 C 37 %
17 22-04-2021 04:44:17 4.3 C 37 %
18 22-04-2021 04:54:17 3.1 C 39 %
19 22-04-2021 05:04:17 3.3 C 40 %
20 22-04-2021 05:14:17 3.3 C 40 %
21 22-04-2021 05:24:18 3.2 C 40 %
22 22-04-2021 05:34:18 2.5 C 41 %
23 22-04-2021 05:44:18 2.4 C 42 %
24 22-04-2021 05:54:18 2.5 C 41 %
25 22-04-2021 06:04:17 1.8 C 42 %
Sensor: Nr:Datum:Temp:Feuchte:
Aussen-T/F 26 22-04-2021 06:14:17 2.1 C 42 %
27 22-04-2021 06:24:17 1.8 C 43 %
28 22-04-2021 06:34:17 1.9 C 43 %
29 22-04-2021 06:44:17 2 C 42 %
30 22-04-2021 06:54:17 1.9 C 43 %
31 22-04-2021 07:04:17 1.6 C 43 %
32 22-04-2021 07:14:17 2 C 42 %
33 22-04-2021 07:24:18 2.4 C 41 %
34 22-04-2021 07:34:17 2.6 C 41 %
35 22-04-2021 07:44:17 2.5 C 41 %
36 22-04-2021 07:54:17 3.1 C 40 %
37 22-04-2021 08:04:17 3.6 C 39 %
38 22-04-2021 08:14:17 4.2 C 37 %
39 22-04-2021 08:24:17 4.3 C 36 %
40 22-04-2021 08:34:17 4.5 C 36 %
41 22-04-2021 08:44:18 4.5 C 35 %
42 22-04-2021 08:54:17 4.6 C 36 %
43 22-04-2021 09:04:18 4.8 C 36 %
44 22-04-2021 09:14:18 5.1 C 35 %
45 22-04-2021 09:24:17 5.5 C 34 %
46 22-04-2021 09:34:17 5.9 C 34 %
47 22-04-2021 09:44:17 6.2 C 33 %
48 22-04-2021 09:54:17 6.6 C 32 %
49 22-04-2021 10:04:17 6.7 C 32 %
50 22-04-2021 10:14:17 6.7 C 32 %
Sensor: Nr:Datum:Temp:Feuchte:
Aussen-T/F 51 22-04-2021 10:24:17 6.8 C 32 %
52 22-04-2021 10:34:18 7.1 C 31 %
53 22-04-2021 10:44:18 7.3 C 31 %
54 22-04-2021 10:54:17 7.7 C 30 %
55 22-04-2021 11:04:17 8.2 C 30 %
56 22-04-2021 11:14:17 8.3 C 30 %
57 22-04-2021 11:24:17 9 C 29 %
58 22-04-2021 11:34:17 9.8 C 28 %
59 22-04-2021 11:44:17 10.4 C 27 %
60 22-04-2021 11:54:18 11.1 C 27 %
61 22-04-2021 12:04:18 11 C 26 %
62 22-04-2021 12:14:18 11.4 C 26 %
63 22-04-2021 12:24:18 10.1 C 26 %
64 22-04-2021 12:34:18 10.6 C 26 %
65 22-04-2021 12:44:18 10.3 C 26 %
66 22-04-2021 12:54:18 10.6 C 26 %
67 22-04-2021 13:04:18 11.7 C 26 %
68 22-04-2021 13:14:18 11.6 C 26 %
69 22-04-2021 13:24:17 11.2 C 25 %
70 22-04-2021 13:34:17 10.4 C 25 %
71 22-04-2021 13:44:17 11.3 C 25 %
72 22-04-2021 13:54:17 11.6 C 25 %
73 22-04-2021 14:04:17 12.6 C 24 %
74 22-04-2021 14:14:17 12.8 C 25 %
75 22-04-2021 14:24:18 14.1 C 22 %
Sensor: Nr:Datum:Temp:Feuchte:
G-T/H 1 22-04-2021 02:04:18 12.3 C 66 %
2 22-04-2021 02:14:18 12.3 C 66 %
3 22-04-2021 02:24:18 12.2 C 66 %
4 22-04-2021 02:34:18 12.3 C 66 %
5 22-04-2021 02:44:18 12.2 C 66 %
6 22-04-2021 02:54:17 12.2 C 65 %
7 22-04-2021 03:04:17 12.2 C 65 %
8 22-04-2021 03:14:17 12.2 C 65 %
9 22-04-2021 03:24:17 12.2 C 65 %
10 22-04-2021 03:34:17 12.1 C 65 %
11 22-04-2021 03:44:17 12.2 C 65 %
12 22-04-2021 03:54:17 12.2 C 65 %
13 22-04-2021 04:04:17 12.1 C 65 %
14 22-04-2021 04:14:17 12.1 C 65 %
15 22-04-2021 04:24:17 12 C 64 %
16 22-04-2021 04:34:17 12 C 64 %
17 22-04-2021 04:44:17 12 C 63 %
18 22-04-2021 04:54:17 11.9 C 63 %
19 22-04-2021 05:04:17 11.9 C 63 %
20 22-04-2021 05:14:17 11.8 C 62 %
21 22-04-2021 05:24:18 11.8 C 62 %
22 22-04-2021 05:34:18 11.8 C 61 %
23 22-04-2021 05:44:18 11.7 C 61 %
24 22-04-2021 05:54:18 11.7 C 61 %
25 22-04-2021 06:04:17 11.7 C 60 %
Sensor: Nr:Datum:Temp:Feuchte:
G-T/H 26 22-04-2021 06:14:17 11.6 C 60 %
27 22-04-2021 06:24:17 11.6 C 60 %
28 22-04-2021 06:34:17 11.6 C 60 %
29 22-04-2021 06:44:17 11.6 C 60 %
30 22-04-2021 06:54:17 11.6 C 60 %
31 22-04-2021 07:04:17 11.6 C 60 %
32 22-04-2021 07:14:17 11.6 C 60 %
33 22-04-2021 07:24:18 11.6 C 61 %
34 22-04-2021 07:34:17 11.6 C 61 %
35 22-04-2021 07:44:17 11.5 C 61 %
36 22-04-2021 07:54:17 11.5 C 61 %
37 22-04-2021 08:04:17 11.4 C 60 %
38 22-04-2021 08:14:17 11.4 C 60 %
39 22-04-2021 08:24:17 11.4 C 60 %
40 22-04-2021 08:34:17 11.4 C 59 %
41 22-04-2021 08:44:18 11.4 C 59 %
42 22-04-2021 08:54:17 11.4 C 59 %
43 22-04-2021 09:04:18 11.4 C 59 %
44 22-04-2021 09:14:18 11.4 C 60 %
45 22-04-2021 09:24:17 11.4 C 60 %
46 22-04-2021 09:34:17 11.4 C 60 %
47 22-04-2021 09:44:17 11.3 C 60 %
48 22-04-2021 09:54:17 11.3 C 60 %
49 22-04-2021 10:04:17 11.3 C 60 %
50 22-04-2021 10:14:17 11.3 C 61 %
Sensor: Nr:Datum:Temp:Feuchte:
G-T/H 51 22-04-2021 10:24:17 11.3 C 61 %
52 22-04-2021 10:34:18 11.3 C 60 %
53 22-04-2021 10:44:18 11.2 C 60 %
54 22-04-2021 10:54:17 11.2 C 59 %
55 22-04-2021 11:04:17 11.2 C 59 %
56 22-04-2021 11:14:17 11.2 C 59 %
57 22-04-2021 11:24:17 11.2 C 59 %
58 22-04-2021 11:34:17 11.2 C 59 %
59 22-04-2021 11:44:17 11.2 C 59 %
60 22-04-2021 11:54:18 11.2 C 59 %
61 22-04-2021 12:04:18 11.2 C 59 %
62 22-04-2021 12:14:18 11.2 C 60 %
63 22-04-2021 12:24:18 11.2 C 60 %
64 22-04-2021 12:34:18 11.2 C 60 %
65 22-04-2021 12:44:18 11.2 C 60 %
66 22-04-2021 12:54:18 11.2 C 60 %
67 22-04-2021 13:04:18 11.2 C 60 %
68 22-04-2021 13:14:18 11.2 C 60 %
69 22-04-2021 13:24:17 11.3 C 60 %
70 22-04-2021 13:34:17 11.3 C 60 %
71 22-04-2021 13:44:17 11.3 C 60 %
72 22-04-2021 13:54:17 11.3 C 60 %
73 22-04-2021 14:04:17 11.3 C 60 %
74 22-04-2021 14:14:17 11.3 C 60 %
75 22-04-2021 14:24:18 11.4 C 60 %

Legende:
   Min
   Max


Maximal/Minimal-Werte vom 22.04.2021 - 23.04.2021

Sensor Min Max Avg
Temp
(Aussen-T/F)
1.6 °C
22-04-2021  07:04:17
14.1 °C
22-04-2021  14:24:18
6.38 °C
Feuchte
(Aussen-T/F)
22 %
22-04-2021  14:24:18
43 %
22-04-2021  06:24:17
34.07 %
Temp
(G-T/H)
11.2 °C
22-04-2021  10:44:18
12.3 °C
22-04-2021  02:04:18
11.58 °C
Feuchte
(G-T/H)
59 %
22-04-2021  08:34:17
66 %
22-04-2021  02:04:18
61.24 %

Die Daten stammen von einer Davis Vantage Pro 2 Wetter-Station und werden unter Linux mit der Software wview2wettercgi und aufbereitet. Alle Angaben erfolgen ohne Gewähr für ihre Vollständigkeit oder Richtigkeit.
Kontakt: Rainer Krienke krienke@uni-koblenz.de . Meine Webseiten an der Uni Koblenz oder privat.
Version: $Revision: 0.78 $